Location: Cooper Lake State Park
(33.3431°N, 95.6813°W)
Time: 05:15:05
(UTC-06:00)

N. Korean satellite - Visible Passes

Search period start: 10 December 2018 00:00
Search period end: 20 December 2018 00:00
Orbit: 456 x 511 km, 97.2° (Epoch: 09 December)

Date Brightness Start Highest point End Pass type
(mag) Time Alt. Az. Time Alt. Az. Time Alt. Az.
10 Dec 6.9 06:30:21 10° NNE 06:33:54 71° ESE 06:37:28 10° S visible
10 Dec 9.0 18:36:01 10° SSW 18:38:52 24° W 18:41:44 10° NW visible
11 Dec 8.7 06:06:09 10° NE 06:09:19 30° E 06:12:31 10° SSE visible
11 Dec 7.1 18:10:52 10° S 18:14:16 58° W 18:17:39 10° NNW visible
12 Dec 9.9 05:42:41 10° ENE 05:44:39 14° E 05:46:39 10° SE visible
12 Dec 6.5 17:46:22 10° SSE 17:49:43 55° ENE 17:53:05 10° N visible
13 Dec 6.6 06:50:06 10° N 06:53:37 56° WNW 06:57:10 10° SSW visible
13 Dec 9.9 18:57:03 10° WSW 18:58:41 13° W 19:00:20 10° WNW visible
14 Dec 7.2 06:25:32 10° NNE 06:29:05 60° E 06:32:41 10° S visible
14 Dec 8.7 18:31:01 10° SSW 18:34:00 28° W 18:37:00 10° NW visible
15 Dec 9.0 06:01:24 10° NE 06:04:29 26° E 06:07:35 10° SSE visible
15 Dec 6.8 18:06:00 10° S 18:09:24 69° W 18:12:49 10° NNW visible
16 Dec 10.0 05:38:12 10° ENE 05:39:48 12° E 05:41:25 10° ESE visible
16 Dec 6.7 17:41:35 10° SSE 17:44:52 46° ENE 17:48:10 10° N visible
17 Dec 6.6 06:45:11 10° N 06:48:47 67° WNW 06:52:25 10° SSW visible
17 Dec 9.7 18:51:45 10° SW 18:53:47 15° W 18:55:49 10° WNW visible
18 Dec 7.6 06:20:41 10° NNE 06:24:14 51° E 06:27:49 10° S visible
18 Dec 8.4 18:25:59 10° SSW 18:29:06 33° W 18:32:14 10° NNW visible
19 Dec 9.2 05:56:38 10° NE 05:59:36 23° E 06:02:34 10° SSE visible
19 Dec 6.5 18:01:06 10° S 18:04:30 82° W 18:07:56 10° NNW visible
